Погода Гродно

Погода Гродно : погода сейчас, прогноз погоды и архив. Всё, что Вы хотите узнать о погоде Гродно!

Поиск расширенной информации на нашем сайте:

Другие новости

Новости СМИ2

Главная страница сайта

Новости сайта

03.07.2017

Напоминаем, что на нашем специализированном сайте Метеоцентр.Азия вы можете получить высокодетализированные автоматические прогнозы погоды по пунктам России, СНГ и мира в авиационном формате (включающие направление и скорость ветра, видимость, явления погоды, количество и форму облачности, нижнюю и верхнюю границу облачности).


Погода Гродно - сегодня

Время (UTC), дата Ветер
(°,м/с) 
Видим.   Явления Облачность Т
(°С)
Тd
(°С)
f(%) Тe
(°С)
Pmin
(гПа)
dP
(гПа)
Po
(мм)
O2
(г/м3)
Тmin Tmax R s Состояние
почвы
21 22.02.18 030 (СВ) 9000 м  слаб. снег  9/9 630 м 
[Sc]
-9.2 -12.2 79 -12  1028  0.4  756  317           
00 23.02.18 010 (С) 10 км  {снег}  6/6 700 м 
[Sc]
-11.2 -14 80 -14  1028.2  756  319           
03 23.02.18 010 (С) 10 км    4/4 600 м 
[Sc]
-13.1 -15.1 85 -17  1027.7  -0.5  756  321      0.0   
06 23.02.18 010 (С) 6000 м  слаб. снег  10/10 800 м 
[Ns]
-13.3 -14.6 90 -15  1027.3  -0.5  756  321  -13.5    0.0  равномерный
сухой снег
100% 
09 23.02.18 тихо ()   9000 м  дымка{снег}  8/0 верхняя 
[Ci fib]
-11.2 -13.2 85 -11  1027.8  0.6  756  319           
12 23.02.18 010 (С) 10 км  {снег}  6/0 средняя, верхняя 
[Ac trans|Ci fib]
-8.4 -11.6 78 -10  1026.6  -0.8  755  315           
15 23.02.18 340 (С) 11000 м    3/3 600 м 
[Sc]
-6.2 -10.2 73 -9  1025.1  -1.4  754  312      0.0     
18 23.02.18 100 (В) 10 км    4/0 верхняя 
[Ci fib]
-8.2 -11.9 75 -10  1024.5  -0.7  754  314    -6.2  0.0   
21 23.02.18 тихо ()   10 км    6/0 средняя, верхняя 
[Ac trans|Ci fib]
-9.7 -12.8 78 -10  1024.3  -0.4  754  316           
00 24.02.18 080 (В) 10 км    8/0 средняя 
[Ac trans]
-10.1 -12.9 80 -13  1023.7  -0.6  753  316           
03 24.02.18 050 (СВ) 10 км    8/0 средняя 
[Ac trans]
-11 -13 85 -15  1023.7  753  317         
06 24.02.18 060 (СВ) 12000 м    6/0 средняя 
[Ac trans]
-13.6 -15.6 85 -18  1025.6  1.6  754  321  -13.8      равномерный
сухой снег
100% 
09 24.02.18 060 (СВ) 7-10{11}  14000 м    3/0 верхняя 
[Ci fib]
-11.5 -15.9 70 -18  1026.7  1.3  755  319           
12 24.02.18 050 (СВ) 9-13{14}  14000 м    6/4 600 м верхняя 
[Sc|Ci fib]
-8.7 -15.3 59 -15  1026.7  0.3  755  316           
15 24.02.18 030 (СВ) 8-12{13}  13000 м    6/6 1000 м 
[Sc]
-8.6 -15.1 59 -15  1027.5  0.7  756  316           
18 24.02.18 020 (С) 9-12{14}  10 км    8/8 870 м 
[Sc]
-9.8 -15.1 65 -17  1028.9  1.2  757  318    -8.4     
21 24.02.18 020 (С) 6{12}  10 км    8/8 700 м 
[Sc]
-11.6 -16 70 -17  1030.3  1.3  758  320           
00 25.02.18 020 (С) 10 км    4/0 средняя 
[Ac trans]
-13.5 -17 75 -18  1030.8  0.3  758  323           
03 25.02.18 350 (С) 8000 м  дымка  3/0 верхняя 
[Ci fib]
-14.8 -16.8 85 -18  1030.8  758  324         
06 25.02.18 350 (С) 9000 м  дымка  3/0 верхняя 
[Ci fib]
-15.7 -17 90 -19  1030.9  758  326  -15.9      равномерный
сухой снег
100% 
09 25.02.18 350 (С) 8000 м  слаб. снег  8/6 900 м средняя 
[Sc|Ac trans]
-13.6 -15.6 85 -16  1031.3  0.5  758  323           
15 25.02.18 350 (С) 12000 м  {снег}  8/8 900 м 
[Sc]
-10.3 -14.7 70 -12  1029.6  -1  757  318      0.2     
18 25.02.18 320 (СЗ) 10 км  {снег}  8/6 900 м средняя 
[Sc|Ac trans]
-12 -16.4 70 -16  1030.2  0.5  758  321    -10.3  0.2   
21 25.02.18 020 (С) 10 км    8/8 1000 м 
[Sc]
-13.2 -17.5 70 -18  1030.3  758  322           
00 26.02.18 020 (С) 10 км    9/9 900 м 
[Sc]
-14 -16.7 80 -18  1030.4  758  323           
Время (UTC), дата Ветер
(°,м/с) 
Видим.   Явления Облачность Т
(°С)
Тd
(°С)
f(%) Тe
(°С)
Pmin
(гПа)
dP
(гПа)
Po
(мм)
O2
(г/м3)
Тmin Tmax R s Состояние
почвы

Для получения пояснительной информации подведите курсор к названию столбца.

ПОГОДА Гродно - архив

Всё, что Вы хотите узнать о погоде Гродно - удобно и подробно!

Выберите нужную дату (начиная с 1 января 2015* года) и нажмите кнопку "Найти".
Будут отображены архивные сводки погоды по пункту Гродно, начиная с указанной даты.


Отображать данные в формате CSV (для использования в таблицах Excel)


Внимание! Наш архив погоды предназначен исключительно для личного некоммерческого использования в познавательных целях. Если Вам необходимы официальные справки о состоянии погоды (для производственных, юридических, коммерческих и т.п. целей), обращайтесь в органы Росгидромета.

*Примечание: данная дата относится к архиву по метеостанциям СССР (Россия, СНГ, Балтия).
Архив по метеостанциям Зарубежной Европы и Азии (кроме Китая) хранится 10 дней, по другим регионам земного шара (Китай, Африка, Америка, Австралия, Океания) - 1 день.

Гродно - район местоположения метеостанции


Название, широта, долгота, высота метеостанции:
Гродно 53.6°ш. 24.1°д. 134 м над ур. моря [Беларусь]

Дополнительная информация

В oтличие oт бoльшинства пoгoдных сайтoв мы публикуем пoдрoбную метеoинфoрмацию в детальнoм прoфессиoнальнoм фoрмате.

Характеристики температуры и влажнoсти вoздуха измеряются на высoте 2 м в тени вдали oт зданий и деревьев.
Скoрoсть ветра измеряется на высoте 10 м (на урoвне рoста челoвека скoрoсть ветра ниже в 1.5-2 раза). Если метеoстанция нахoдится в гoрoде или в лесу, тo скoрoсть ветра занижена на 2-4 м/с пo сравнению с oткрытым местoм. Скoрoсть ветра над акватoриями крупных рек и oзёр, а также на вершинах хoлмoв на 2-5 м/с выше, чем в oбычных услoвиях.
Атмoсфернoе давление в разных тoчках местнoсти мoжет значительнo oтличаться oт давления на метеoстанции, в зависимoсти oт услoвий рельефа (при пoдъёме на 10 м давление пoнижается примернo на 1 мм рт.ст.).